Location: Aetna Mine
(37.6183°N, 107.6045°W)
Time: 10:58:19
(UTC+00:00)

Meteor 1-11 Rocket - Pass Details

Date: 18 September 2020
Orbit: 830 x 916 km, 81.2° (Epoch: 20 October)

Event Time Altitude Azimuth Distance (km) Brightness Sun altitude
Rises 12:05:14 0° 346° (NNW) 3,503 6.9 -10.7°
Reaches altitude 10° 12:07:45 10° 343° (NNW) 2,547 6.1 -10.2°
Maximum altitude 12:13:25 59° 266° (W) 992 3.8 -9.1°
Drops below altitude 10° 12:18:55 10° 187° (S) 2,474 6.0 -8.0°
Sets 12:21:20 0° 184° (S) 3,394 6.7 -7.5°
